Flag for U.S.A. Weather past 2 weeks in Livonia, Michigan, U.S.A.

Now
53 °F

Sunny.


Feels Like: 53 °F
Forecast: 34 / 60 °F
Wind: No wind

Location: Detroit Metropolitan Wayne County Airport

Current Time: Apr 1, 2015 at 2:00:11 PM

Latest Report: Apr 1, 2015 at 12:53 PM


Visibility: 10 mi

Pressure: 30.13 "Hg

Humidity: 51%

Dew point: 35 °F

Location of LivoniaLocation

Historic Weather in Livonia — Graph

°F

Livonia temperature yesterday

Maximum temperature yesterday: 47 °F (at 6:53 PM)
Minimum temperature yesterday: 33 °F (at 11:53 PM)
Average temperature yesterday: 38 °F

Past Weeks' High & Low Weather Summary

 TemperatureHumidityPressure
High59 °F (Mar 30, 3:53 PM)97% (Mar 25, 10:53 AM)30.39 "Hg (Mar 25, 10:53 AM)
Low15 °F (Mar 28, 1:53 AM)21% (Mar 17, 1:53 PM)29.72 "Hg (Mar 31, 6:53 AM)
Average36 °F58%30.12 "Hg
* Reported Mar 17 12:53 PM — Apr 1 12:53 PM, Livonia, Weather by CustomWeather, © 2015

Note: Actual official high and low records may vary slightly from our data, if they occured in-between our weather recording intervals... More about our weather records

Advertising

Livonia weather history for previous 24 hours

 ConditionsComfort  
Time TempWeatherWind HumidityBarometerVisibility
12:53 PM
Wed, Apr 1
53 °FSunny.No wind51%30.13 "Hg10 mi
11:53 AM49 °FSunny.No wind59%30.13 "Hg8 mi
10:53 AM44 °FSunny.No wind71%30.13 "Hg8 mi
9:53 AM40 °FHaze.No wind80%30.12 "Hg5 mi
8:53 AM37 °FFog.6 mph89%30.10 "Hg3 mi
7:53 AM33 °FFog.3 mph88%30.08 "Hg2 mi
6:53 AM33 °FFog.7 mph92%30.05 "Hg4 mi
5:53 AM34 °FFog.8 mph88%30.04 "Hg5 mi
4:53 AM35 °FFog.7 mph88%30.03 "Hg6 mi
3:53 AM36 °FOvercast.8 mph85%30.01 "Hg7 mi
2:53 AM37 °FFog.9 mph86%30.02 "Hg6 mi
1:53 AM35 °FFog.5 mph92%30.01 "Hg6 mi
12:53 AM32 °FIce fog.8 mph92%29.98 "Hg6 mi
11:53 PM
Tue, Mar 31
33 °FPassing clouds.7 mph92%29.99 "Hg9 mi
10:53 PM35 °FPassing clouds.5 mph88%30.01 "Hg10 mi
9:53 PM38 °FPassing clouds.7 mph86%30.01 "Hg10 mi
8:53 PM41 °FScattered clouds.7 mph76%29.98 "Hg10 mi
7:53 PM42 °FScattered clouds.8 mph71%29.97 "Hg10 mi
6:53 PM47 °FScattered clouds.7 mph50%29.95 "Hg10 mi
5:53 PM44 °FBroken clouds.No wind63%29.93 "Hg10 mi
4:53 PM44 °FMore clouds than sun.6 mph65%29.93 "Hg10 mi
3:53 PM43 °FOvercast.7 mph68%29.93 "Hg10 mi
2:53 PM41 °FMostly cloudy.6 mph76%29.91 "Hg10 mi
Weather by CustomWeather, © 2015

See weather overviewHow to use our weather pages